Other Public Products
Issued by NWS Charleston, SC

Current Version | Previous Version | Graphics & Text | Print | Product List | Glossary On
Versions: 1 2 3 4 5 6 7 8 9 10 11 12 13 14 15 16 17 18 19 20 21 22 23 24 25 26 27 28 29 30 31 32 33 34 35 36 37 38 39 40 41 42 43 44 45 46 47 48 49 50
463
FPUS82 KCHS 240142
OPUCHS

TEST...KCHS/KSAV Gateway Observations...TEST
National Weather Service Charleston SC
900 PM EDT SAT SEP 23 2017

NOTE: "fair" indicates few or no clouds below 12,000 feet with no
significant weather and/or obstructions to visibility.

SCZ050-WAZ558-NCZ071-TXZ119-213-PAZ071-DCZ001-FLZ074-172-MI076-
NYZ176-178-MAZ016-IL014-TNZ027-NJZ106-GAZ044-MD014-240200-

...Gateway Observations for Charleston International...

CITY           SKY/WX    TMP DP  RH WIND       PRES   REMARKS
Chas Airport   CLEAR     77  69  76 E5        30.00S
Seattle        PTCLDY    67  49  52 W5        30.09S
Charlotte      PTCLDY    79  63  57 NE7       30.07R
Dallas DFW     PTCLDY    87  64  46 SE10      29.84S
Dallas Love    PTCLDY    88  63  43 SE10      29.85S
Philladelphia  CLEAR     77  61  57 SW3       30.05R
Wash National  CLEAR     77  60  55 N6        30.08R
Baltimore      CLEAR     68  62  81 CALM      30.07R
Miami          CLOUDY    84  76  76 NE7       29.84R HX  93
Detroit        CLEAR     76  64  66 S5        30.12S
Newark         CLEAR     77  53  43 N6        30.03S
Laguardia      CLEAR     80  54  40 N3        30.02S
J F K          CLEAR     78  54  43 N6        30.03S
Boston Logan   FOG       61  61 100 S5        30.04R VSB 1/4
Ft. Lauderdale CLOUDY    83  77  82 NE6       29.82R HX  92
Chicago O`Hare CLEAR     83  65  54 SE7       30.04R
Chicago Midway CLEAR     83  67  58 E7        30.04R
Houston Bush   PTCLDY    81  72  74 SE10      29.86F
Houston Hobby  PTCLDY    83  71  67 SE7       29.86F
Nashville      CLEAR     81  69  67 CALM      30.03R
Atlanta        PTCLDY    79  65  62 SE3       30.03R

$$

GAZ044-118-TXZ119-213-NCZ071-DCZ001-MDZ014-506-PAZ021-071-NJZ106-
NYZ176-178-MAZ106-OHZ011-021-055-MIZ076-KYZ091-ILZ014-INZ047-
MNZ060-ONZ431-240200-

...Gateway Observations for Savannah International...

CITY           SKY/WX    TMP DP  RH WIND       PRES   REMARKS
Savannah Arpt  CLEAR     78  71  79 E9        30.00R
Atlanta        PTCLDY    79  65  62 SE3       30.03R
Charlotte      PTCLDY    79  63  57 NE7       30.07R
Dallas DFW     PTCLDY    87  64  46 SE10      29.84S
Houston Bush   PTCLDY    81  72  74 SE10      29.86F
Wash National  CLEAR     77  60  55 N6        30.08R
Wash Dulles    CLEAR     68  64  87 CALM      30.08R
Baltimore      CLEAR     68  62  81 CALM      30.07R
Philadelphia   CLEAR     77  61  57 SW3       30.05R
Newark         CLEAR     77  53  43 N6        30.03S
Laguardia      CLEAR     80  54  40 N3        30.02S
J F K          CLEAR     78  54  43 N6        30.03S
Boston         FOG       61  61 100 S5        30.04R VSB 1/4
Pittsburg      PTCLDY    75  59  57 CALM      30.13S
Akron          PTCLDY    77  59  53 E6        30.14R
Cleveland      CLEAR     75  56  51 CALM      30.13S
Cincinnati     PTCLDY    77  66  68 CALM      30.08R
Columbus       CLEAR     71  63  75 NE5       30.09S
Detroit        CLEAR     76  64  66 S5        30.12S
Chicago O`Hare CLEAR     83  65  54 SE7       30.04R
Minneapolis    CLOUDY    83  71  67 SE7       29.91S
Indianapolis   PTCLDY    80  62  54 SE6       30.07R
Toronto Canada CLEAR     82  64  54 VRB2      30.08R

$$




USA.gov is the U.S. government's official web portal to all federal, state and local government web resources and services.